timestamp,surface_pressure_avg,surface_temp_avg,battery_voltage,lat,long
2019-02-13 00:00:00+00:00,260.4781,-0.2,12.97,47.84626,-54.09684
2019-02-13 00:10:00+00:00,259.398,-0.21,12.89,47.84626,-54.09684
2019-02-13 00:20:00+00:00,261.3197,-0.2,12.97,47.84626,-54.09684
2019-02-13 00:30:00+00:00,261.338,-0.13,12.97,47.84626,-54.09684
2019-02-13 00:40:00+00:00,262.6431,-0.11,12.97,47.84626,-54.09684
2019-02-13 00:50:00+00:00,265.1064,-0.11,12.97,47.84626,-54.09684
2019-02-13 01:00:00+00:00,268.7548,-0.1,12.89,47.84626,-54.09684
2019-02-13 01:10:00+00:00,273.8914,-0.1,12.81,47.84626,-54.09684
2019-02-13 01:20:00+00:00,274.3997,-0.1,12.97,47.84626,-54.09684
2019-02-13 01:30:00+00:00,273.013,-0.1,12.97,47.84626,-54.09684
2019-02-13 01:40:00+00:00,273.2264,-0.1,12.97,47.84626,-54.09684
2019-02-13 01:50:00+00:00,276.4031,-0.1,12.97,47.84626,-54.09684
2019-02-13 02:00:00+00:00,281.2147,-0.2,12.89,47.84626,-54.09684
2019-02-13 02:10:00+00:00,287.3547,-0.2,12.81,47.84626,-54.09684
2019-02-13 02:20:00+00:00,291.613,-0.21,12.89,47.84626,-54.09684
2019-02-13 02:30:00+00:00,296.108,-0.3,12.89,47.84626,-54.09684
2019-02-13 02:40:00+00:00,299.4464,-0.3,12.97,47.84626,-54.09684
2019-02-13 02:50:00+00:00,305.588,-0.27,12.97,47.84626,-54.09684
2019-02-13 03:00:00+00:00,310.773,-0.2,12.89,47.84626,-54.09684
2019-02-13 03:10:00+00:00,315.1863,-0.2,12.81,47.84626,-54.09684
2019-02-13 03:20:00+00:00,314.6896,-0.2,12.89,47.84626,-54.09684
2019-02-13 03:30:00+00:00,316.8547,-0.2,12.89,47.84626,-54.09684
2019-02-13 03:40:00+00:00,322.4014,-0.2,12.89,47.84626,-54.09684
2019-02-13 03:50:00+00:00,328.9613,-0.2,12.97,47.84626,-54.09684
2019-02-13 04:00:00+00:00,330.3262,-0.2,12.81,47.84626,-54.09684
2019-02-13 04:10:00+00:00,332.693,-0.2,12.73,47.84626,-54.09684
2019-02-13 04:20:00+00:00,338.0513,-0.2,12.89,47.84626,-54.09684
2019-02-13 04:30:00+00:00,341.6813,-0.1,12.89,47.84626,-54.09684
2019-02-13 04:40:00+00:00,341.0063,0.0,12.89,47.84626,-54.09684
2019-02-13 04:50:00+00:00,342.5264,0.0,12.89,47.84626,-54.09684
2019-02-13 05:00:00+00:00,345.1812,-0.1,12.81,47.84626,-54.09684
2019-02-13 05:10:00+00:00,346.5163,-0.1,12.73,47.84626,-54.09684
2019-02-13 05:20:00+00:00,344.3513,-0.17,12.81,47.84626,-54.09684
2019-02-13 05:30:00+00:00,341.5162,-0.13,12.81,47.84626,-54.09684
2019-02-13 05:40:00+00:00,341.118,-0.19,12.89,47.84626,-54.09684
2019-02-13 05:50:00+00:00,341.2829,-0.2,12.89,47.84626,-54.09684
2019-02-13 06:00:00+00:00,342.0596,-0.2,12.81,47.84626,-54.09684
2019-02-13 06:10:00+00:00,342.7463,-0.2,12.73,47.84626,-54.09684
2019-02-13 06:20:00+00:00,341.2079,-0.2,12.81,47.84626,-54.09684
2019-02-13 06:30:00+00:00,337.363,-0.3,12.81,47.84626,-54.09684
2019-02-13 06:40:00+00:00,335.1163,-0.3,12.81,47.84626,-54.09684
2019-02-13 06:50:00+00:00,331.8363,-0.3,12.89,47.84626,-54.09684
2019-02-13 07:00:00+00:00,326.7296,-0.4,12.73,47.84626,-54.09684
2019-02-13 07:10:00+00:00,323.4296,-0.4,12.73,47.84626,-54.09684
2019-02-13 07:20:00+00:00,320.0546,-0.4,12.81,47.84626,-54.09684
2019-02-13 07:30:00+00:00,314.108,-0.4,12.81,47.84626,-54.09684
2019-02-13 07:40:00+00:00,305.9763,-0.4,12.81,47.84626,-54.09684
2019-02-13 07:50:00+00:00,302.173,-0.4,12.81,47.84626,-54.09684
2019-02-13 08:00:00+00:00,296.7713,-0.4,12.73,47.84626,-54.09684
2019-02-13 08:10:00+00:00,288.7131,-0.41,12.65,47.84626,-54.09684
2019-02-13 08:20:00+00:00,284.213,-0.47,12.73,47.84626,-54.09684
2019-02-13 08:30:00+00:00,284.0931,-0.4,12.81,47.84626,-54.09684
2019-02-13 08:40:00+00:00,280.0063,-0.5,12.81,47.84626,-54.09684
2019-02-13 08:50:00+00:00,268.8331,-0.5,12.81,47.84626,-54.09684
2019-02-13 09:00:00+00:00,259.7664,-0.5,12.73,47.84626,-54.09684
2019-02-13 09:10:00+00:00,258.9597,-0.5,12.65,47.84626,-54.09684
2019-02-13 09:20:00+00:00,254.7131,-0.5,12.73,47.84626,-54.09684
2019-02-13 09:30:00+00:00,244.0047,-0.5,12.73,47.84626,-54.09684
2019-02-13 09:40:00+00:00,239.9731,-0.5,12.81,47.84626,-54.09684
2019-02-13 09:50:00+00:00,239.6447,-0.5,12.81,47.84626,-54.09684
2019-02-13 10:00:00+00:00,233.1165,-0.5,12.73,47.84626,-54.09684
2019-02-13 10:10:00+00:00,226.4814,-0.5,12.65,47.84626,-54.09684
2019-02-13 10:20:00+00:00,226.3031,-0.51,12.73,47.84626,-54.09684
2019-02-13 10:30:00+00:00,227.7831,-0.6,12.73,47.84626,-54.09684
2019-02-13 10:40:00+00:00,228.7047,-0.7,12.73,47.84626,-54.09684
2019-02-13 10:50:00+00:00,232.8998,-0.7,12.81,47.84626,-54.09684
2019-02-13 11:00:00+00:00,237.7148,-0.7,12.89,47.84626,-54.09684
2019-02-13 11:10:00+00:00,239.1031,-0.7,13.29,47.84626,-54.09684
2019-02-13 11:20:00+00:00,235.0047,-0.7,14.88,47.84626,-54.09684
2019-02-13 11:30:00+00:00,231.6764,-0.61,16.47,47.84626,-54.09684
2019-02-13 11:40:00+00:00,230.2747,-0.51,16.63,47.84626,-54.09684
2019-02-13 11:50:00+00:00,230.5064,-0.44,16.95,47.84626,-54.09684
2019-02-13 12:00:00+00:00,233.8597,-0.3,16.71,47.84626,-54.09684
2019-02-13 12:10:00+00:00,236.7148,-0.2,16.31,47.84626,-54.09684
2019-02-13 12:20:00+00:00,238.2781,-0.17,16.95,47.84626,-54.09684
2019-02-13 12:30:00+00:00,238.6598,-0.14,16.31,47.84626,-54.09684
2019-02-13 12:40:00+00:00,237.0331,-0.15,16.15,47.84626,-54.09684
2019-02-13 12:50:00+00:00,237.6697,-0.2,15.83,47.84626,-54.09684
2019-02-13 13:00:00+00:00,244.0964,-0.2,15.44,47.84626,-54.09684
2019-02-13 13:10:00+00:00,245.6997,-0.2,15.27,47.84626,-54.09684
2019-02-13 13:20:00+00:00,245.0764,-0.2,15.44,47.84626,-54.09684
2019-02-13 13:30:00+00:00,247.5298,-0.3,15.04,47.84626,-54.09684
2019-02-13 13:40:00+00:00,248.5381,-0.31,15.35,47.84626,-54.09684
2019-02-13 13:50:00+00:00,249.9064,-0.3,15.51,47.84626,-54.09684
2019-02-13 14:00:00+00:00,257.5981,-0.3,15.27,47.84626,-54.09684
2019-02-13 14:10:00+00:00,264.1714,-0.3,15.11,47.84626,-54.09684
2019-02-13 14:20:00+00:00,263.1764,-0.1,15.2,47.84626,-54.09684
2019-02-13 14:30:00+00:00,267.0997,-0.06,15.27,47.84626,-54.09684
2019-02-13 14:40:00+00:00,273.9997,0.01,15.04,47.84626,-54.09684
2019-02-13 14:50:00+00:00,280.9214,0.1,14.96,47.84626,-54.09684
2019-02-13 15:00:00+00:00,290.5947,0.11,14.8,47.84626,-54.09684
2019-02-13 15:10:00+00:00,298.5447,0.2,14.64,47.84626,-54.09684
2019-02-13 15:20:00+00:00,300.5231,0.2,14.64,47.84626,-54.09684
2019-02-13 15:30:00+00:00,304.223,0.2,14.64,47.84626,-54.09684
2019-02-13 15:40:00+00:00,309.1296,0.2,14.64,47.84626,-54.09684
2019-02-13 15:50:00+00:00,310.4781,0.2,14.56,47.84626,-54.09684
2019-02-13 16:00:00+00:00,308.758,0.2,14.48,47.84626,-54.09684
2019-02-13 16:10:00+00:00,308.9579,0.2,14.48,47.84626,-54.09684
2019-02-13 16:20:00+00:00,312.6197,0.19,14.48,47.84626,-54.09684
2019-02-13 16:30:00+00:00,311.5996,0.2,14.48,47.84626,-54.09684
2019-02-13 16:40:00+00:00,305.1397,0.22,14.48,47.84626,-54.09684
2019-02-13 16:50:00+00:00,308.1848,0.29,14.48,47.84626,-54.09684
2019-02-13 17:00:00+00:00,311.9163,0.3,14.4,47.84626,-54.09684
2019-02-13 17:10:00+00:00,311.0397,0.3,14.4,47.84626,-54.09684
2019-02-13 17:20:00+00:00,305.868,0.29,14.72,47.84626,-54.09684
2019-02-13 17:30:00+00:00,311.0662,0.29,14.96,47.84626,-54.09684
2019-02-13 17:40:00+00:00,310.5846,0.29,14.8,47.84626,-54.09684
2019-02-13 17:50:00+00:00,302.5364,0.22,14.88,47.84626,-54.09684
2019-02-13 18:00:00+00:00,306.7396,0.22,14.72,47.84626,-54.09684
2019-02-13 18:10:00+00:00,310.3312,0.2,14.64,47.84626,-54.09684
2019-02-13 18:20:00+00:00,305.0397,0.2,14.64,47.84626,-54.09684
2019-02-13 18:30:00+00:00,298.2031,0.25,14.56,47.84626,-54.09684
2019-02-13 18:40:00+00:00,303.8279,0.25,14.56,47.84626,-54.09684
2019-02-13 18:50:00+00:00,308.303,0.26,14.48,47.84626,-54.09684
2019-02-13 19:00:00+00:00,305.8897,0.29,14.32,47.84626,-54.09684
2019-02-13 19:10:00+00:00,297.2681,0.29,14.16,47.84626,-54.09684
2019-02-13 19:20:00+00:00,291.118,0.3,14.16,47.84626,-54.09684
2019-02-13 19:30:00+00:00,289.1931,0.3,14.08,47.84626,-54.09684
2019-02-13 19:40:00+00:00,279.9814,0.3,14.0,47.84626,-54.09684
2019-02-13 19:50:00+00:00,270.2414,0.3,14.0,47.84626,-54.09684
2019-02-13 20:00:00+00:00,273.2813,0.3,13.92,47.84626,-54.09684
2019-02-13 20:10:00+00:00,272.9431,0.34,13.68,47.84626,-54.09684
2019-02-13 20:20:00+00:00,264.438,0.36,13.68,47.84626,-54.09684
2019-02-13 20:30:00+00:00,263.4798,0.38,13.6,47.84626,-54.09684
2019-02-13 20:40:00+00:00,263.4498,0.38,13.6,47.84626,-54.09684
2019-02-13 20:50:00+00:00,256.5231,0.39,13.6,47.84626,-54.09684
2019-02-13 21:00:00+00:00,247.7714,0.4,13.44,47.84626,-54.09684
2019-02-13 21:10:00+00:00,246.3731,0.4,13.29,47.84626,-54.09684
2019-02-13 21:20:00+00:00,246.1764,0.39,13.29,47.84626,-54.09684
2019-02-13 21:30:00+00:00,242.3281,0.34,13.29,47.84626,-54.09684
2019-02-13 21:40:00+00:00,237.8698,0.3,13.21,47.84626,-54.09684
2019-02-13 21:50:00+00:00,236.3081,0.3,13.21,47.84626,-54.09684
2019-02-13 22:00:00+00:00,228.7181,0.3,13.13,47.84626,-54.09684
2019-02-13 22:10:00+00:00,220.3331,0.2,12.97,47.84626,-54.09684
2019-02-13 22:20:00+00:00,225.8498,0.2,13.05,47.84626,-54.09684
2019-02-13 22:30:00+00:00,228.4931,0.2,13.05,47.84626,-54.09684
2019-02-13 22:40:00+00:00,220.0481,0.2,13.05,47.84626,-54.09684
2019-02-13 22:50:00+00:00,212.0665,0.1,13.05,47.84626,-54.09684
2019-02-13 23:00:00+00:00,209.3631,0.1,12.97,47.84626,-54.09684
2019-02-13 23:10:00+00:00,213.9498,0.1,12.89,47.84626,-54.09684
2019-02-13 23:20:00+00:00,218.4814,0.1,12.97,47.84626,-54.09684
2019-02-13 23:30:00+00:00,223.2764,0.1,12.97,47.84626,-54.09684
2019-02-13 23:40:00+00:00,229.0031,0.1,12.97,47.84626,-54.09684
2019-02-13 23:50:00+00:00,224.0414,0.1,12.97,47.84626,-54.09684
